When you browse on this site, cookies collect data to enhance your experience and personalize the content and advertising you see.
Visit our Privacy Policy to learn more. By continuing to use the site, you agree to this use of cookies and data.
  • In Switzerland
  • List of Countries
  • For 7 days
  • Water Temperature
  • Satellite Maps
  • Weather Map
  • Weather Widgets
  • user-avatar
    Login

    Hourly Weather Begino

    Today, 25 June, Tuesday

    Time Temperature Precipitation Wind Pressure Humidity
    00:00 +16°C° 0 mm 3 mps 754 mmHg 77%
    01:00 +14°C° 0 mm 3 mps 754 mmHg 77%
    02:00 +15°C° 0 mm 2 mps 754 mmHg 79%
    03:00 +15°C° 0 mm 2 mps 755 mmHg 80%
    04:00 +15°C° 0 mm 2 mps 755 mmHg 80%
    05:00 +15°C° 0 mm 2 mps 755 mmHg 81%
    06:00 +17°C° 0 mm 3 mps 755 mmHg 75%
    07:00 +18°C° 0 mm 3 mps 756 mmHg 70%
    08:00 +20°C° 0 mm 3 mps 756 mmHg 65%
    09:00 +20°C° 0 mm 3 mps 756 mmHg 63%
    10:00 +21°C° 0 mm 3 mps 756 mmHg 60%
    11:00 +22°C° 0 mm 3 mps 756 mmHg 58%
    12:00 +22°C° 0 mm 3 mps 756 mmHg 56%
    13:00 +22°C° 0 mm 3 mps 756 mmHg 55%
    14:00 +24°C° 0 mm 3 mps 756 mmHg 54%
    15:00 +22°C° 0 mm 3 mps 756 mmHg 58%
    16:00 +23°C° 0 mm 2 mps 756 mmHg 63%
    17:00 +23°C° 0 mm 2 mps 755 mmHg 67%
    18:00 +20°C° 0 mm 2 mps 756 mmHg 69%
    19:00 +19°C° 0 mm 1 mps 756 mmHg 71%
    20:00 +18°C° 0 mm 1 mps 756 mmHg 73%
    21:00 +16°C° 0 mm 1 mps 756 mmHg 75%
    22:00 +15°C° 0 mm 1 mps 756 mmHg 77%
    23:00 +14°C° 0 mm 1 mps 755 mmHg 80%

    Tomorrow, 26 June, Wednesday

    Time Temperature Precipitation Wind Pressure Humidity
    00:00 +14°C° 0 mm 1 mps 756 mmHg 81%
    01:00 +13°C° 0 mm 1 mps 756 mmHg 82%
    02:00 +13°C° 0 mm 1 mps 756 mmHg 83%
    03:00 +14°C° 0 mm 1 mps 756 mmHg 82%
    04:00 +14°C° 0 mm 1 mps 756 mmHg 82%
    05:00 +15°C° 0 mm 1 mps 755 mmHg 82%
    06:00 +18°C° 0 mm 1 mps 755 mmHg 77%
    07:00 +19°C° 0 mm 1 mps 755 mmHg 72%
    08:00 +20°C° 0 mm 2 mps 755 mmHg 67%
    09:00 +21°C° 0 mm 2 mps 755 mmHg 64%
    10:00 +23°C° 0 mm 2 mps 754 mmHg 60%
    11:00 +23°C° 0 mm 2 mps 754 mmHg 56%
    12:00 +24°C° 0 mm 3 mps 754 mmHg 56%
    13:00 +24°C° 0 mm 3 mps 753 mmHg 57%
    14:00 +24°C° 0 mm 3 mps 753 mmHg 57%
    15:00 +24°C° 0.1 mm 3 mps 752 mmHg 60%
    16:00 +24°C° 0.1 mm 2 mps 752 mmHg 63%
    17:00 +24°C° 0.1 mm 2 mps 751 mmHg 66%
    18:00 +23°C° 0 mm 1 mps 751 mmHg 69%
    19:00 +21°C° 0 mm 1 mps 750 mmHg 72%
    20:00 +17°C° 0 mm 0 mps 750 mmHg 75%
    21:00 +19°C° 0 mm 1 mps 749 mmHg 77%
    22:00 +18°C° 0 mm 2 mps 749 mmHg 78%
    23:00 +17°C° 0 mm 2 mps 748 mmHg 80%

    Day after tomorrow, 27 June, Thursday

    Time Temperature Precipitation Wind Pressure Humidity
    00:00 +17°C° 0 mm 3 mps 747 mmHg 82%
    01:00 +16°C° 0 mm 3 mps 747 mmHg 85%
    02:00 +15°C° 0 mm 4 mps 746 mmHg 87%
    03:00 +15°C° 2.8 mm 4 mps 745 mmHg 90%
    04:00 +15°C° 2.8 mm 5 mps 744 mmHg 93%
    05:00 +15°C° 2.8 mm 5 mps 743 mmHg 96%
    06:00 +16°C° 1.5 mm 6 mps 742 mmHg 95%
    07:00 +17°C° 1.5 mm 6 mps 741 mmHg 93%
    08:00 +19°C° 1.5 mm 6 mps 741 mmHg 92%
    09:00 +20°C° 0.7 mm 6 mps 740 mmHg 92%
    10:00 +20°C° 0.7 mm 5 mps 739 mmHg 93%
    11:00 +20°C° 0.7 mm 5 mps 738 mmHg 94%
    12:00 +20°C° 1.1 mm 6 mps 738 mmHg 94%
    13:00 +20°C° 1.1 mm 6 mps 737 mmHg 93%
    14:00 +20°C° 1.1 mm 7 mps 737 mmHg 93%
    15:00 +21°C° 0.3 mm 7 mps 736 mmHg 92%
    16:00 +21°C° 0.3 mm 7 mps 735 mmHg 91%
    17:00 +22°C° 0.3 mm 7 mps 734 mmHg 89%
    18:00 +21°C° 2.7 mm 6 mps 734 mmHg 90%
    19:00 +21°C° 2.7 mm 5 mps 733 mmHg 91%
    20:00 +20°C° 2.7 mm 4 mps 732 mmHg 92%
    21:00 +19°C° 0.7 mm 5 mps 732 mmHg 94%
    22:00 +19°C° 0.7 mm 5 mps 731 mmHg 95%
    23:00 +17°C° 0.7 mm 5 mps 731 mmHg 96%

    28 June, Friday

    Time Temperature Precipitation Wind Pressure Humidity
    00:00 +16°C° 0.1 mm 6 mps 731 mmHg 96%
    01:00 +16°C° 0.1 mm 6 mps 731 mmHg 95%
    02:00 +15°C° 0.1 mm 7 mps 730 mmHg 95%
    03:00 +15°C° 0 mm 6 mps 730 mmHg 93%
    04:00 +14°C° 0 mm 6 mps 730 mmHg 92%
    05:00 +14°C° 0 mm 6 mps 730 mmHg 91%
    06:00 +14°C° 0 mm 6 mps 730 mmHg 91%
    07:00 +14°C° 0 mm 6 mps 730 mmHg 90%
    08:00 +14°C° 0 mm 6 mps 729 mmHg 89%
    09:00 +14°C° 0 mm 6 mps 729 mmHg 89%
    10:00 +14°C° 0 mm 6 mps 729 mmHg 88%
    11:00 +14°C° 0 mm 6 mps 729 mmHg 88%
    12:00 +14°C° 0.2 mm 6 mps 729 mmHg 90%
    13:00 +14°C° 0.2 mm 6 mps 729 mmHg 91%
    14:00 +14°C° 0.2 mm 6 mps 729 mmHg 93%
    15:00 +14°C° 0.1 mm 6 mps 729 mmHg 93%
    16:00 +13°C° 0.1 mm 6 mps 729 mmHg 93%
    17:00 +13°C° 0.1 mm 6 mps 729 mmHg 93%
    18:00 +11°C° 0.3 mm 6 mps 729 mmHg 93%
    19:00 +11°C° 0.3 mm 6 mps 729 mmHg 94%
    20:00 +10°C° 0.3 mm 6 mps 730 mmHg 95%
    21:00 +10°C° 0.6 mm 6 mps 730 mmHg 95%
    22:00 +10°C° 0.6 mm 6 mps 730 mmHg 95%
    23:00 +10°C° 0.6 mm 7 mps 730 mmHg 95%

    29 June, Saturday

    Time Temperature Precipitation Wind Pressure Humidity
    00:00 +10°C° 0.3 mm 6 mps 730 mmHg 95%
    01:00 +10°C° 0.3 mm 6 mps 730 mmHg 95%
    02:00 +10°C° 0.3 mm 6 mps 730 mmHg 95%
    03:00 +10°C° 0.6 mm 6 mps 731 mmHg 95%
    04:00 +10°C° 0.6 mm 7 mps 731 mmHg 95%
    05:00 +10°C° 0.6 mm 7 mps 732 mmHg 95%
    06:00 +10°C° 0.4 mm 7 mps 732 mmHg 95%
    07:00 +10°C° 0.4 mm 7 mps 733 mmHg 94%
    08:00 +10°C° 0.4 mm 7 mps 733 mmHg 94%
    09:00 +10°C° 0.1 mm 7 mps 734 mmHg 93%
    10:00 +10°C° 0.1 mm 7 mps 735 mmHg 92%
    11:00 +10°C° 0.1 mm 7 mps 736 mmHg 92%
    12:00 +10°C° 0.1 mm 6 mps 736 mmHg 90%
    13:00 +10°C° 0.1 mm 6 mps 737 mmHg 88%
    14:00 +10°C° 0.1 mm 5 mps 737 mmHg 87%
    15:00 +11°C° 0 mm 4 mps 737 mmHg 84%
    16:00 +11°C° 0 mm 4 mps 738 mmHg 82%
    17:00 +12°C° 0 mm 3 mps 738 mmHg 80%
    18:00 +11°C° 0 mm 3 mps 738 mmHg 80%
    19:00 +11°C° 0 mm 3 mps 739 mmHg 80%
    20:00 +10°C° 0 mm 3 mps 739 mmHg 81%
    21:00 +10°C° 0 mm 3 mps 739 mmHg 80%
    22:00 +10°C° 0 mm 3 mps 740 mmHg 80%
    23:00 +10°C° 0 mm 2 mps 740 mmHg 79%

    30 June, Sunday

    Time Temperature Precipitation Wind Pressure Humidity
    00:00 +9°C° 0 mm 3 mps 740 mmHg 80%
    01:00 +9°C° 0 mm 3 mps 740 mmHg 80%
    02:00 +9°C° 0 mm 3 mps 740 mmHg 81%
    03:00 +9°C° 0 mm 3 mps 741 mmHg 81%
    04:00 +9°C° 0 mm 3 mps 741 mmHg 81%
    05:00 +9°C° 0 mm 3 mps 741 mmHg 82%
    06:00 +10°C° 0 mm 3 mps 741 mmHg 78%
    07:00 +12°C° 0 mm 4 mps 741 mmHg 73%
    08:00 +14°C° 0 mm 4 mps 741 mmHg 69%
    09:00 +15°C° 0 mm 4 mps 742 mmHg 65%
    10:00 +17°C° 0 mm 4 mps 742 mmHg 60%
    11:00 +18°C° 0 mm 4 mps 742 mmHg 56%
    12:00 +18°C° 0 mm 4 mps 742 mmHg 55%
    13:00 +19°C° 0 mm 4 mps 742 mmHg 54%
    14:00 +19°C° 0 mm 3 mps 742 mmHg 54%
    15:00 +19°C° 0 mm 3 mps 742 mmHg 56%
    16:00 +19°C° 0 mm 2 mps 742 mmHg 58%
    17:00 +19°C° 0 mm 2 mps 742 mmHg 59%
    18:00 +17°C° 0 mm 2 mps 742 mmHg 67%
    19:00 +15°C° 0 mm 2 mps 743 mmHg 74%
    20:00 +13°C° 0 mm 2 mps 743 mmHg 81%
    21:00 +13°C° 0 mm 2 mps 743 mmHg 85%
    22:00 +12°C° 0 mm 2 mps 743 mmHg 88%
    23:00 +12°C° 0 mm 2 mps 743 mmHg 92%
    Show more